{"data":{"norad_id":68191,"epoch":"2026-09-20T03:39:06.804576Z","epoch_age_seconds":81050,"freshness":"FRESH","line1":"1 68191U 26050AA  26263.15216209  .00010253  00000+0  31418-3 0  9993","line2":"2 68191  53.1581  79.4073 0000456  93.7156 266.3899 15.34397337 30513","mean_motion":15.34397337,"eccentricity":4.56e-5,"inclination_deg":53.1581,"raan_deg":79.4073,"arg_perigee_deg":93.7156,"mean_anomaly_deg":266.3899,"bstar":0.00031418,"rev_number":3051,"period_min":93.847920957386,"perigee_km":462.39921253988,"apogee_km":463.02309789163,"semimajor_km":6840.8481552158,"source":"CELESTRAK","updated_at":"2026-09-20T09:00:43.804099Z"}}